This demonstration page uses our WeatherBlox Daily Observations layout. Learn more.

Left ArrowRight Arrow

39.01783, -85.05884

Hourly Observations for August 9, 2021

Temp ( °F °C ) Dew Point ( °F °C ) Humidity (%) Winds ( mph kmh ) Pressure ( in mb ) Visibility ( mi km ) Precip ( " mm )
12:52 am 00:52 Clear 75 23.9 66 18.9 74 74 SSW 7 11 30.01 1016 10 16 0.00 0.00
1:52 am 01:52 Clear 74 23.3 66 18.9 76 76 SSW 7 11 30.00 1016 10 16 0.00 0.00
2:52 am 02:52 Clear 74 23.3 65 18.3 74 74 SSW 7 11 29.99 1016 10 16 0.00 0.00
3:52 am 03:52 Clear 74 23.3 65 18.3 74 74 S 7 11 29.98 1015 10 16 0.00 0.00
4:52 am 04:52 Partly Cloudy 73 22.8 65 18.3 76 76 SSE 9 15 29.98 1015 10 16 0.00 0.00
5:52 am 05:52 Partly Cloudy 71 21.7 66 18.9 84 84 SSE 8 13 30.00 1016 10 16 0.00 0.00
6:52 am 06:52 Partly Cloudy 70 21.1 65 18.3 84 84 SSE 8 13 30.00 1016 9 14 0.00 0.00
7:52 am 07:52 Mostly Cloudy 73 22.8 67 19.4 81 81 S 10 17 30.02 1017 9 14 0.00 0.00
8:52 am 08:52 Mostly Cloudy 76 24.4 67 19.4 74 74 S 8 13 30.02 1017 9 14 0.00 0.00
9:52 am 09:52 Mostly Cloudy 77 25 68 20 74 74 S 13 20 30.02 1017 9 14 0.00 0.00
10:52 am 10:52 Cloudy 78 25.6 68 20 71 71 SSW 10 17 30.02 1017 9 14 0.00 0.00
11:52 am 11:52 Cloudy 78 25.6 69 20.6 74 74 SSW 8 13 30.03 1017 9 14 0.00 0.00
12:02 pm 12:02 Cloudy 78 25.6 69 20.6 74 74 SW 10 17 30.03 1017 8 13 0.00 0.00
12:52 pm 12:52 Cloudy 79 26.1 69 20.6 72 72 S 9 15 30.03 1017 8 13 0.00 0.00
1:08 pm 13:08 Cloudy with Rain 76 24.4 69 20.6 79 79 SSW 10 17 30.02 1017 3 5 0.00 0.00
1:17 pm 13:17 Cloudy with Light Rain 76 24.4 70 21.1 82 82 SSW 12 19 30.02 1017 5 8 0.03 0.76
1:38 pm 13:38 Cloudy with Light Rain 74 23.3 68 20 82 82 SSW 8 13 30.01 1016 8 13 0.04 1.02
1:52 pm 13:52 Cloudy with Light Rain 74 23.3 69 20.6 85 85 SSW 8 13 30.00 1016 6 10 0.04 1.02
2:38 pm 14:38 Cloudy 75 23.9 70 21.1 84 84 SSW 12 19 30.02 1016 7 11 0.00 0.00
2:52 pm 14:52 Cloudy 74 23.3 70 21.1 88 88 SSW 12 19 30.02 1017 8 13 0.00 0.00
3:01 pm 15:01 Cloudy with Light Rain 74 23.3 70 21.1 88 88 SW 9 15 30.01 1016 7 11 0.00 0.00
3:14 pm 15:14 Cloudy with Light Rain 73 22.8 69 20.6 87 87 SSW 10 17 30.01 1016 5 8 0.01 0.25
3:38 pm 15:38 Cloudy 73 22.8 69 20.6 87 87 SSW 9 15 29.98 1015 8 13 0.01 0.25
3:52 pm 15:52 Cloudy 75 23.9 70 21.1 84 84 S 9 15 29.97 1015 10 16 0.01 0.25
4:14 pm 16:14 Cloudy 74 23.3 69 20.6 85 85 SSW 8 13 29.98 1015 10 16 0.00 0.00
4:52 pm 16:52 Cloudy 74 23.3 68 20 82 82 SSW 9 15 29.98 1015 10 16 0.00 0.00
5:37 pm 17:37 Cloudy 74 23.3 68 20 82 82 S 12 19 29.99 1015 10 16 0.00 0.00
5:52 pm 17:52 Cloudy 75 23.9 68 20 79 79 S 10 17 29.99 1016 10 16 0.00 0.00
6:52 pm 18:52 Cloudy 75 23.9 68 20 79 79 SSW 12 19 29.98 1015 10 16 0.00 0.00
7:41 pm 19:41 Cloudy 74 23.3 68 20 82 82 S 12 19 30.00 1016 10 16 0.00 0.00
7:52 pm 19:52 Cloudy 74 23.3 68 20 82 82 S 9 15 30.00 1016 10 16 0.00 0.00
8:52 pm 20:52 Mostly Cloudy 73 22.8 68 20 84 84 S 10 17 30.01 1016 10 16 0.00 0.00
9:52 pm 21:52 Mostly Cloudy 72 22.2 68 20 87 87 S 9 15 30.01 1016 10 16 0.00 0.00
10:52 pm 22:52 Mostly Cloudy 72 22.2 68 20 87 87 S 9 15 30.02 1017 10 16 0.00 0.00
11:52 pm 23:52 Mostly Clear 72 22.2 68 20 87 87 S 12 19 30.02 1017 10 16 0.00 0.00

Powered by AerisWeather